Weather in Russkiye Shoi

Russia / Mari El Republic     56°40′08″N   49°08′16″E
temp.,
°C
wind,
m/s
gust,
m/s
humid.,
%
clouds,
%
prec.,
mm/h
press.,
hPa
HPBL,
m
13 august, sat
sat1300:00+16w4127411 0.0 1020217
03:00+14wnw38856 0.0 1020139
06:00+16nw37844 0.0 1020198
09:00+21nw46615 0.0 1020727
12:00+23nw454829 0.0 10211358
15:00+24nnw45507 0.0 10201638
18:00+21nw22666 0.0 102033
21:00+16nnw22765 0.0 102115
14 august, sun
sun1400:00+15n22756 0.0 102111
03:00+14n227444 0.0 102211
06:00+16n126997 0.0 102266
09:00+20ene1156100 0.0 1022375
12:00+21nnw1254100 0.0 1023661
15:00+20wnw126542 0.0 1022145
18:00+20nne11681 0.0 102112
21:00+16ne018186 0.0 102211
15 august, mon
mon1500:00+16wnw118360 0.1 102211
03:00+15nnw11873 0.1 102311
06:00+17n11810 0.0 102345
09:00+22nne11650 0.0 1023596
12:00+24nne23520 0.9 10231522
15:00+25nne334798 0.9 10232194
18:00+21nne366471 0.0 1023149
21:00+16ne23720 0.0 102425
16 august, tue
tue1600:00+14ne22740 0.0 102518
03:00+13nne22770 0.0 102622
06:00+15ne24720 0.0 1027117
09:00+20ene34539 0.0 1027477
12:00+23ene33439 0.0 10271160
15:00+24ne334249 0.0 10261357
18:00+21nne1258100 0.0 102615
21:00+18nne1160100 0.0 102611
17 august, wed
wed1700:00+16ne116818 0.0 102611
03:00+15nne00735 0.0 102611
06:00+17w00705 0.0 102620
09:00+23nw00535 0.0 1026458
12:00+25nw11435 0.0 10251556
15:00+26nnw224342 0.0 10241764
18:00+23nnw22605 0.0 102319
21:00+18nnw22670 0.0 102311